This is the latest recevied weather packets stored in our database for station/object YO8PIC-13. If no packets are shown the sender has not sent any weather packets the latest 10 day(s).
| Time | Temp. | Humidity | Pressure | Rain* | Wind** | Luminosity | Snow |
|---|---|---|---|---|---|---|---|
| 1787976135 | 13.89° C | 86% | 1024.5 hPa | - | - | - | - |
| 1787975534 | 13.89° C | 86% | 1024.3 hPa | - | - | - | - |
| 1787974934 | 13.89° C | 86% | 1024.3 hPa | - | - | - | - |
| 1787974334 | 13.89° C | 87% | 1024.4 hPa | - | - | - | - |
| 1787973734 | 13.89° C | 86% | 1024.3 hPa | - | - | - | - |
| 1787973134 | 13.89° C | 86% | 1024.4 hPa | - | - | - | - |
| 1787972534 | 13.89° C | 89% | 1024.5 hPa | - | - | - | - |
| 1787971935 | 13.89° C | 87% | 1024.6 hPa | - | - | - | - |
| 1787971335 | 13.89° C | 88% | 1024.6 hPa | - | - | - | - |
| 1787970734 | 14.44° C | 88% | 1024.7 hPa | - | - | - | - |
| 1787970134 | 14.44° C | 87% | 1024.7 hPa | - | - | - | - |
| 1787969534 | 14.44° C | 89% | 1024.8 hPa | - | - | - | - |
| 1787968934 | 14.44° C | 88% | 1024.8 hPa | - | - | - | - |
| 1787968334 | 14.44° C | 88% | 1024.9 hPa | - | - | - | - |
| 1787967735 | 14.44° C | 87% | 1025 hPa | - | - | - | - |
| 1787967134 | 14.44° C | 87% | 1025 hPa | - | - | - | - |
| 1787966534 | 14.44° C | 87% | 1025 hPa | - | - | - | - |
| 1787965934 | 14.44° C | 87% | 1025 hPa | - | - | - | - |
| 1787965334 | 14.44° C | 87% | 1024.9 hPa | - | - | - | - |
| 1787964734 | 14.44° C | 87% | 1024.9 hPa | - | - | - | - |
| 1787964134 | 15° C | 86% | 1025 hPa | - | - | - | - |
| 1787963534 | 15° C | 86% | 1025.1 hPa | - | - | - | - |
| 1787962934 | 15° C | 85% | 1025 hPa | - | - | - | - |
| 1787962334 | 15° C | 86% | 1025.1 hPa | - | - | - | - |
| 1787961734 | 15.56° C | 85% | 1025 hPa | - | - | - | - |
* Rain since midnight (hover to see other rain measurements)
** Current wind speed in m/s (hover to see current wind gust speed)